Wilmington, OH

9:32 AM EDT on April 24, 2017 (GMT -0400)
Airborne

Weather History for KILN - November, 2012

Change the Weather History Date:

Friday, November 23, 2012

  Actual Average (KFFO) Record (KFFO)
Temperature  
Mean Temperature 42 °F -  
Max Temperature 55 °F 48 °F 71 °F (1999)
Min Temperature 28 °F 31 °F 15 °F (2008)
Degree Days  
Heating Degree Days 24    
Moisture  
Dew Point 31 °F    
Average Humidity 64    
Maximum Humidity 94    
Minimum Humidity 49    
Precipitation  
Precipitation 0.01 in - - ()
Sea Level Pressure  
Sea Level Pressure 30.05 in    
Wind  
Wind Speed 16 mph (West)    
Max Wind Speed 26 mph    
Max Gust Speed 38 mph    
Visibility 9 miles    
Events Rain , Snow    
Averages and records for this station are not official NWS values.
T = Trace of Precipitation, MM = Missing Value Source: NWS Daily Summary

Daily Weather History Graph

Daily Weather History Graph

Search for Another Location

Airport or City:

Trip Planner

Search our weather history database for the weather conditions in past years. The results will help you decide how hot, cold, wet, or windy it might be!

Date:

Astronomy

Nov. 23, 2012 Rise Set
Actual Time 7:28 AM EST 5:14 PM EST
Civil Twilight 6:59 AM EST 5:44 PM EST
Nautical Twilight 6:26 AM EST 6:16 PM EST
Astronomical Twilight 5:54 AM EST 6:49 PM EST
Moon 2:27 PM EST (11/23) 2:47 AM EST (11/23)
Length of Visible Light 10h 44m
Length of Day
9h 46m
Waxing Gibbous, 79% of the Moon is Illuminated
Nov 23
Waxing Gibbous
Nov 28
Full
Dec 6
Last Quarter
Dec 13
New
Dec 20
First Quarter

Hourly Weather History & Observations

Time (EST) Temp. Windchill Dew Point Humidity Pressure Visibility Wind Dir Wind Speed Gust Speed Precip Events Conditions
12:54 AM 51.1 °F - 39.9 °F 66% 29.99 in 10.0 mi SSW 13.8 mph - N/A   Clear
1:54 AM 53.1 °F - 39.9 °F 61% 29.98 in 10.0 mi SW 15.0 mph - N/A   Partly Cloudy
2:54 AM 55.9 °F - 39.0 °F 53% 29.96 in 10.0 mi SW 17.3 mph 25.3 mph N/A   Overcast
3:06 AM 55.4 °F - 39.2 °F 54% 29.95 in 10.0 mi SW 17.3 mph 25.3 mph N/A   Overcast
3:54 AM 55.9 °F - 39.9 °F 55% 29.95 in 10.0 mi SW 18.4 mph - N/A   Overcast
4:26 AM 55.4 °F - 39.2 °F 54% 29.92 in 10.0 mi SW 18.4 mph 25.3 mph N/A   Overcast
4:54 AM 55.0 °F - 41.0 °F 59% 29.94 in 10.0 mi SW 12.7 mph - N/A   Overcast
5:54 AM 54.0 °F - 43.0 °F 66% 29.94 in 10.0 mi SW 16.1 mph - 0.00 in Rain Light Rain
6:54 AM 51.1 °F - 45.0 °F 80% 29.96 in 9.0 mi WSW 13.8 mph - 0.01 in   Overcast
7:51 AM 50.0 °F - 48.2 °F 94% 29.93 in 6.0 mi WSW 11.5 mph - 0.00 in   Overcast
7:54 AM 50.0 °F - 48.0 °F 93% 29.96 in 6.0 mi WSW 12.7 mph - 0.00 in   Overcast
8:23 AM 50.0 °F - 44.6 °F 82% 29.94 in 10.0 mi West 18.4 mph 24.2 mph N/A   Overcast
8:54 AM 46.0 °F 38.8 °F 37.0 °F 71% 29.99 in 10.0 mi West 18.4 mph 27.6 mph N/A   Overcast
9:54 AM 45.0 °F 37.6 °F 36.0 °F 71% 30.00 in 10.0 mi West 17.3 mph 23.0 mph N/A   Overcast
10:54 AM 45.0 °F 37.4 °F 32.0 °F 60% 30.02 in 10.0 mi West 18.4 mph 27.6 mph N/A   Clear
11:54 AM 46.0 °F 38.3 °F 30.0 °F 54% 30.01 in 10.0 mi West 20.7 mph 32.2 mph N/A   Clear
1:54 PM 45.0 °F 35.8 °F 27.0 °F 49% 29.99 in 10.0 mi West 26.5 mph 34.5 mph N/A   Partly Cloudy
2:54 PM 41.0 °F 30.7 °F 27.0 °F 57% 30.01 in 10.0 mi West 25.3 mph 34.5 mph N/A   Mostly Cloudy
3:54 PM 39.9 °F 30.0 °F 25.0 °F 55% 30.05 in 10.0 mi WNW 21.9 mph 29.9 mph N/A   Mostly Cloudy
4:54 PM 37.9 °F 26.3 °F 24.1 °F 57% 30.08 in 10.0 mi West 26.5 mph 38.0 mph 0.00 in Rain Light Rain
5:54 PM 36.0 °F 26.7 °F 25.0 °F 64% 30.12 in 9.0 mi NW 15.0 mph 32.2 mph 0.00 in Snow Light Snow
6:54 PM 33.1 °F 22.2 °F 21.9 °F 64% 30.16 in 9.0 mi NW 17.3 mph - 0.00 in   Overcast
7:30 PM 32.0 °F 21.2 °F 21.2 °F 64% 30.12 in 9.0 mi NW 16.1 mph 23.0 mph 0.00 in Snow Light Snow
7:54 PM 32.0 °F 21.6 °F 21.0 °F 64% 30.18 in 9.0 mi WNW 15.0 mph 25.3 mph 0.00 in Snow Light Snow
8:54 PM 30.0 °F 19.5 °F 19.9 °F 66% 30.21 in 10.0 mi NW 13.8 mph - 0.00 in   Overcast
9:54 PM 30.0 °F 21.1 °F 19.0 °F 64% 30.22 in 9.0 mi WNW 10.4 mph - 0.00 in Snow Light Snow
10:49 PM 30.2 °F 21.3 °F 17.6 °F 60% 30.15 in 9.0 mi NW 10.4 mph - 0.00 in Snow Light Snow
10:54 PM 30.0 °F 19.5 °F 18.0 °F 61% 30.21 in 9.0 mi NW 13.8 mph 18.4 mph 0.00 in Snow Light Snow
11:12 PM 30.2 °F 21.3 °F 19.4 °F 64% 30.15 in 9.0 mi WNW 10.4 mph - 0.00 in Snow Light Snow
11:44 PM 28.4 °F 17.5 °F 17.6 °F 64% 30.14 in 9.0 mi WNW 13.8 mph 20.7 mph 0.00 in Snow Light Snow
11:54 PM 28.9 °F 18.6 °F 17.1 °F 61% 30.21 in 9.0 mi WNW 12.7 mph 19.6 mph 0.00 in Snow Light Snow